RH
32 40 45 36 30 29 29 28 27 26 27 26 25 25 26 32 40 44 46 33 23 18 18 16 16 18 17 14 13 14 14 15 16 16 17 18 18 18 19 19 19 20 20 21
36 42 44 41 33 31 31 33 34 34 34 38 36 37 41 47 47 39 28 21 20 19 18 17 16 17 18 18 16 15 15 16 16 17 17 18 19 20 22 24 25 26 26 27
50 41 41 43 42 41 40 42 44 51 54 58 55 49 43 37 31 26 20 19 18 19 19 18 17 17 20 22 25 25 23 24 26 27 28 29 30 29 28 28 27 26 27 28
52 55 55 52 51 54 58 59 54 43 41 39 37 35 30 26 24 22 20 20 21 20 20 18 19 19 21 25 28 30 30 30 30 31 31 33 34 32 27 25 26 28 28 28
47 47 47 47 46 45 43 41 40 39 38 39 37 33 32 26 24 24 23 22 24 26 27 23 20 22 30 32 32 33 32 31 33 36 38 38 38 38 37 36 39 41 40 39
47 47 46 46 44 41 40 40 39 38 38 38 37 31 31 27 27 30 29 27 27 30 31 36 48 50 44 41 40 40 40 38 37 38 36 34 34 35 38 41 42 40 39 39
31 44 46 45 46 44 43 43 41 40 40 35 33 30 33 38 44 41 34 30 29 40 39 56 79 81 78 64 52 47 44 45 47 47 45 44 44 44 41 39 39 38 37 37
33 33 34 38 37 35 39 38 36 30 33 34 41 43 45 48 50 46 38 42 48 52 63 66 81 89 81 69 67 71 64 57 54 54 54 52 48 44 42 42 42 41 38 36
42 49 46 44 43 42 41 42 42 38 36 37 44 44 47 52 51 44 42 62 76 82 87 86 87 81 78 76 70 62 57 54 55 55 51 48 46 47 48 49 51 50 48 47
39 36 44 45 48 49 46 44 44 44 38 40 46 48 48 51 54 50 54 76 88 89 93 100 99 96 89 82 75 72 71 69 70 70 67 62 63 63 59 60 59 56 50 48
49 44 39 37 42 47 46 45 50 46 44 41 37 44 48 64 72 67 65 74 82 84 86 92 99 99 97 96 96 93 90 90 92 90 89 85 80 80 78 76 73 72 71 66
76 60 60 62 61 53 47 45 46 45 43 46 65 65 92 89 73 63 69 67 65 65 62 59 60 62 62 59 57 58 59 63 65 65 67 69 68 67 59 52 49 43 40 36
68 59 60 58 62 65 64 79 88 92 96 92 94 92 88 72 78 86 88 89 82 74 66 59 53 50 52 54 52 49 46 46 45 44 42 40 40 38 37 37 36 35 34 34
87 79 71 65 59 53 54 58 68 72 67 78 77 80 78 76 76 77 76 77 74 67 61 56 52 51 47 43 41 42 43 41 41 39 38 37 37 38 38 35 38 38 38 36
90 74 70 71 77 73 71 77 75 67 73 62 71 69 76 73 70 67 70 67 65 62 61 62 59 51 45 42 43 44 42 44 43 41 41 39 39 40 41 44 40 35 33 34
88 78 82 84 89 73 67 72 72 67 61 58 68 71 75 78 73 69 72 75 70 61 54 50 46 44 42 41 40 41 46 48 46 44 41 39 38 34 35 34 32 29 23 21
100 100 89 84 85 81 80 100 100 97 87 78 67 59 58 64 68 71 71 70 65 60 57 54 51 50 48 48 47 40 39 38 35 32 29 26 24 20 21 18 18 16 15 14
99 100 97 95 99 82 82 68 62 68 70 69 65 56 52 46 44 45 49 52 50 52 51 48 46 45 43 38 34 34 31 30 26 24 23 18 17 16 16 14 14 13 12 12
100 100 99 97 84 71 70 54 50 47 44 48 48 52 50 49 48 44 48 49 46 42 41 39 37 36 35 34 33 28 27 23 18 17 17 17 16 14 13 12 12 12 12 11
100 100 100 85 83 70 58 54 48 46 47 49 49 46 44 43 39 39 39 38 37 34 35 36 36 33 31 25 20 20 18 17 16 16 16 16 14 13 13 13 12 12 12 12
74 75 65 62 59 53 50 48 45 42 38 38 37 40 40 41 42 37 38 40 39 35 27 24 22 22 22 20 18 19 19 17 16 16 15 14 14 14 14 13 12 12 11 10
51 47 48 44 43 41 41 39 36 33 32 31 30 26 28 25 23 23 23 22 21 19 17 18 18 17 16 17 18 18 17 16 15 15 14 14 13 13 14 13 12 10 11 12
48 41 34 32 34 37 31 30 28 24 25 26 26 21 19 18 18 17 16 16 16 15 14 15 15 15 15 16 16 15 15 15 16 15 15 15 14 14 15 12 12 13 12 14
32 27 24 22 23 21 21 21 20 18 18 18 17 17 17 16 16 15 14 14 13 14 15 15 14 14 15 15 15 16 16 16 17 16 15 15 15 14 13 13 14 14 16 17
27 24 22 20 19 18 18 18 17 17 17 17 16 15 14 14 14 13 14 15 15 14 14 14 14 14 14 14 15 18 17 17 16 16 16 15 14 14 15 16 16 17 18 18
19 19 18 19 18 18 17 16 15 15 16 15 14 14 14 14 14 14 16 15 14 14 14 14 15 17 17 16 16 17 17 17 16 16 15 14 14 16 19 18 18 17 20 16
Wind_Speed
20 28 32 33 35 37 38 39 40 40 40 42 42 42 41 39 37 38 39 41 43 44 45 45 45 44 44 45 47 50 51 52 52 53 51 47 44 43 44 43 42 42 41 41
20 25 31 33 34 35 37 38 38 39 39 40 40 40 39 39 40 40 42 43 45 46 47 47 46 45 43 43 43 43 44 45 44 43 42 41 40 40 39 38 39 40 41 41
21 22 27 31 33 35 35 35 35 35 36 38 39 42 42 43 44 44 44 46 48 50 50 50 48 46 46 44 43 42 41 40 38 37 37 38 39 40 41 43 44 45 47 49
27 25 26 26 27 28 30 31 33 35 38 42 44 45 47 46 47 49 50 51 54 55 55 54 51 48 48 48 46 45 43 41 41 41 41 42 43 45 46 47 49 50 51 53
32 30 30 31 32 33 34 36 38 40 42 44 47 48 51 50 50 51 53 54 54 56 56 56 52 49 48 49 48 48 48 48 48 48 50 51 53 54 56 57 58 59 60 60
34 35 36 38 39 40 41 42 42 44 46 47 50 51 52 53 54 55 55 55 56 55 53 53 51 48 44 46 49 52 53 55 56 57 58 60 61 62 64 65 66 68 68 67
38 40 42 43 45 46 48 48 49 48 51 52 53 52 55 55 56 58 58 56 54 52 52 52 52 49 47 47 49 52 56 58 60 62 63 65 68 70 71 73 74 74 74 73
42 45 47 49 50 51 53 54 56 54 55 54 56 55 56 58 60 61 59 55 52 52 52 54 56 56 56 55 55 57 60 62 64 67 69 72 75 77 78 80 80 81 80 80
46 48 50 53 55 57 57 60 62 62 59 58 59 59 59 61 62 60 57 55 55 54 54 54 56 60 62 64 66 68 69 71 73 76 79 81 82 84 86 87 87 87 87 88
50 50 54 58 61 63 64 65 67 68 65 62 61 62 64 64 62 60 57 56 57 59 59 61 62 64 67 69 72 75 77 80 83 85 87 89 91 92 93 95 95 96 96 98
52 52 52 57 62 65 67 68 70 70 68 68 64 62 63 63 61 59 60 61 62 64 66 68 69 71 74 76 79 82 85 87 89 92 94 96 97 100 102 104 105 106 108 108
50 48 46 48 52 56 57 60 64 66 65 64 63 56 65 66 67 68 70 70 70 72 73 75 76 79 81 83 84 86 89 91 92 94 97 100 102 105 108 109 111 111 112 114
58 57 57 57 59 61 62 64 66 67 66 66 72 67 73 74 75 78 79 79 78 79 80 81 82 84 85 86 88 90 92 95 99 102 105 108 109 111 112 115 116 117 120 121
65 65 69 69 71 71 69 70 73 76 75 80 76 79 81 82 81 82 81 83 84 86 88 91 91 92 93 95 97 99 101 104 106 108 109 110 112 115 116 118 119 121 122 124
75 74 76 73 74 75 74 74 77 77 82 85 79 86 87 88 89 89 89 89 91 94 95 97 99 102 103 105 106 108 109 109 111 113 112 114 115 118 119 121 125 126 127 126
79 78 79 74 78 80 77 77 82 85 87 89 89 88 91 94 97 97 97 98 101 104 105 105 107 108 110 111 112 112 112 113 115 115 118 119 121 124 124 124 124 123 121 119
83 85 86 79 82 83 78 84 89 90 91 92 93 93 95 98 101 102 104 105 106 109 111 113 115 117 116 114 113 116 119 119 120 119 120 117 115 112 110 107 105 105 105 107
86 87 87 85 85 86 83 87 90 94 96 98 99 99 103 106 107 108 109 111 113 115 116 116 116 117 118 121 122 121 121 121 120 117 114 108 108 108 106 105 102 101 99 98
90 92 92 93 94 92 90 93 93 96 98 100 104 103 105 108 108 108 111 113 115 118 119 121 122 123 122 121 122 121 117 113 109 106 105 104 103 103 99 95 94 93 93 92
91 92 95 94 98 102 99 99 100 102 101 103 105 106 107 109 109 111 114 115 114 114 115 118 120 121 120 116 113 112 110 111 109 106 104 102 99 94 89 88 87 84 82 80
91 97 101 103 107 109 109 109 109 109 107 107 110 112 112 110 112 112 113 113 114 114 115 115 113 112 113 114 113 113 111 107 104 102 98 91 88 85 81 78 76 75 74 72
93 95 96 102 106 107 109 110 111 114 116 116 112 114 111 108 108 109 111 112 112 112 112 112 113 113 111 111 110 105 101 98 92 87 84 81 78 72 71 70 70 69 66 67
100 103 103 106 105 107 110 109 107 105 107 111 111 110 109 109 110 112 114 114 114 114 113 112 109 104 99 98 98 94 89 84 81 78 74 70 67 65 65 65 64 63 63 64
105 106 105 106 107 107 104 105 105 102 102 105 107 109 111 112 114 113 112 111 109 106 103 99 97 95 91 87 84 82 78 74 69 66 62 61 62 62 61 60 59 60 60 61
108 105 104 104 107 104 106 108 108 108 110 110 111 113 113 111 109 106 101 99 99 96 92 88 86 85 82 79 73 70 68 66 63 61 59 60 60 59 58 56 56 56 56 57
106 108 109 109 112 111 112 110 108 107 106 107 106 103 102 100 98 94 92 90 87 85 83 80 75 73 69 65 63 63 62 61 60 61 61 59 56 54 54 55 55 51 51 54
Wind_Direction
277 246 246 249 253 256 260 263 266 268 272 274 274 275 276 278 279 281 284 285 285 286 289 290 288 286 286 284 279 277 276 276 275 275 273 271 271 271 272 273 273 273 273 273
290 264 255 256 259 261 264 267 269 272 273 276 278 279 280 283 283 283 282 282 283 284 286 287 289 290 288 286 283 279 276 274 272 271 271 270 271 272 274 275 276 276 275 273
287 277 267 262 262 263 265 268 271 274 277 278 280 282 282 284 285 284 283 283 284 284 285 286 288 287 285 281 279 278 275 273 272 272 273 275 277 279 281 281 282 281 280 278
280 277 274 271 268 267 268 269 273 278 280 283 284 286 287 287 288 288 287 287 288 288 288 287 287 284 281 277 273 271 270 271 274 276 276 277 279 281 282 282 282 282 281 280
277 277 276 274 273 273 274 275 277 279 280 283 285 285 288 287 288 288 287 287 287 288 287 288 288 283 278 275 272 270 270 272 273 274 276 279 280 282 283 283 282 282 282 282
275 276 276 277 276 275 276 277 277 279 280 283 285 287 288 289 289 289 289 288 287 287 287 286 285 284 279 273 271 271 273 275 277 277 279 281 282 283 283 282 282 282 282 281
276 274 274 276 277 277 278 279 278 279 281 283 284 287 288 288 290 291 290 288 285 284 281 280 280 277 277 276 275 274 276 277 278 280 282 282 282 282 282 282 282 282 282 282
279 278 278 278 278 279 279 280 280 278 278 281 284 284 284 286 287 288 288 286 284 282 279 277 276 275 275 275 275 276 278 278 280 280 280 280 281 282 282 282 282 280 279 278
277 278 278 279 279 279 278 280 280 281 282 283 283 284 287 285 285 286 285 285 285 283 281 279 279 277 277 277 277 279 280 281 281 282 283 283 283 284 284 283 281 280 280 280
278 278 278 278 278 279 280 280 280 281 283 283 284 284 284 284 284 283 284 284 282 281 279 279 280 280 280 281 281 282 283 284 285 285 284 285 285 284 282 281 281 280 280 280
281 282 281 281 280 280 280 281 281 283 284 283 283 285 284 283 281 282 282 281 280 280 278 278 279 280 281 281 282 283 283 283 283 283 283 283 283 283 283 283 283 283 283 283
283 284 284 284 286 287 287 286 284 283 284 286 286 284 283 282 283 285 285 283 282 281 280 279 278 278 279 280 282 282 282 283 283 283 283 282 283 283 283 283 283 282 281 281
281 285 287 286 286 286 286 284 283 283 283 286 283 285 282 283 283 284 283 282 281 281 280 279 279 281 281 281 281 282 283 283 284 285 285 285 284 283 283 283 283 282 283 283
280 283 285 287 288 288 287 285 284 283 285 281 284 283 285 284 284 283 282 281 280 281 281 281 282 282 283 283 283 283 284 285 286 285 284 284 282 282 282 282 282 283 283 283
281 282 284 286 288 288 288 288 287 288 285 285 284 284 284 284 283 283 282 281 281 280 280 281 281 282 283 283 285 286 287 286 285 285 284 284 283 284 283 282 283 283 283 282
281 284 284 285 287 288 288 288 288 287 288 288 286 286 285 285 284 283 282 282 281 282 282 283 283 284 286 287 287 286 284 283 283 282 282 283 282 283 281 282 282 284 283 283
280 281 282 285 285 284 286 285 286 288 287 287 286 287 286 285 285 285 284 283 283 283 284 285 286 285 286 286 284 283 283 282 282 281 282 285 287 287 285 285 284 283 283 283
281 281 282 284 284 283 283 285 284 283 283 283 283 284 283 283 283 283 283 282 282 281 281 281 281 281 282 283 285 285 286 287 288 287 286 288 286 286 286 285 284 284 284 285
283 283 284 284 282 284 286 284 283 284 284 282 282 282 284 282 282 282 280 279 280 281 281 282 282 283 284 285 286 288 289 288 288 289 289 289 289 288 286 285 286 285 286 285
282 281 283 285 282 283 284 284 285 284 283 280 280 281 281 281 281 281 280 279 280 281 282 282 282 283 284 285 287 288 289 290 289 289 289 289 289 288 287 286 285 285 284 283
279 280 281 281 282 283 284 283 283 283 284 282 282 281 282 282 282 281 281 282 282 282 282 284 285 286 286 287 288 289 289 290 290 290 289 288 287 287 286 284 284 285 286 287
285 282 283 281 282 282 282 283 283 284 284 284 283 282 282 281 282 283 283 284 284 284 285 286 287 287 288 288 289 289 289 289 289 288 287 286 286 285 285 285 285 286 287 288
287 285 284 284 283 284 282 281 282 283 284 284 284 283 282 284 284 284 285 285 286 287 287 288 289 289 288 288 288 289 288 288 288 287 287 286 285 284 285 286 288 289 290 289
287 286 286 286 287 285 285 285 286 285 285 284 285 284 284 283 283 284 285 285 286 287 287 288 287 288 287 286 287 287 286 287 285 285 284 284 285 286 287 287 288 290 292 293
288 289 288 289 288 288 288 287 287 287 287 286 285 285 285 285 285 287 288 287 287 287 287 288 287 287 287 286 285 285 285 284 285 285 286 286 286 288 287 288 291 292 293 297
289 288 289 289 288 289 287 286 286 286 285 285 285 285 285 284 284 285 285 285 285 286 287 287 287 286 286 285 286 285 285 285 286 287 287 286 287 286 287 291 293 292 296 298